www.pogodaiklimat.ru

Погода и климат >> Архив погоды >> Австралия >> Западная Австралия >> Калгурли-Боулдер


ПОГОДА в Калгурли-Боулдере

  • Прогноз погоды в Калгурли-Боулдере
  • Монитор погоды в Калгурли-Боулдере

АРХИВ ПОГОДЫ в Калгурли-Боулдере

Время (UTC), дата Ветер
(напр.,м/с)
 
Видим.   Явления Облачность Т
(С)
Тd
(С)
f
(%)
Тe
(С)
Тes
(С)
Комфортность P
(гПа)
Po
(гПа)
Тmin
(С)
Tmax
(С)
R
(мм)
R24
(мм)
S
(см)
16 11.07 Ю 2 н/о н/о +6.5 +4.8 89 +4 +4 1029.1 985.1
18 11.07 Ю 2 н/о н/о +5.6 +4.9 95 +3 +3 1028.7 984.8
19 11.07 штиль 0 н/о н/о +4.5 +3.9 96 +3 +3 1029.1 985.1
21 11.07 ЮЗ 2 н/о н/о +4.6 +4.5 99 +2 +2 1029.4 985.4
22 11.07 ЮЗ 1 н/о н/о +3.4 +3.1 98 +2 +2 1029.8 985.8
00 12.07 ЮЗ 3 н/о н/о +6.0 +5.9 99 +2 +2 1030.8 986.8
01 12.07 Ю 2 н/о н/о +7.7 +6.8 94 +5 +5 1031.6 987.5 +2.1
03 12.07 В 3 н/о н/о +14.0 +7.1 63 +13 +13 1031.8 987.7
04 12.07 В 2 н/о 6/6 600 м
[]
+15.1 +6.4 56 +15 +18 1030.7 986.7
06 12.07 В 4 н/о н/о +16.7 +5.9 49 +16 +16 1029.4 985.4
07 12.07 ЮВ 5 н/о 3/3 1000 м
[]
+16.6 +6.1 50 +16 +17 1029.5 985.5
09 12.07 ЮВ 5 н/о н/о +15.0 +6.6 57 +14 +14 1030.7 986.7
10 12.07 ЮВ 5 н/о 9/9 1000 м
[]
+14.4 +7.5 63 +13 +13 1031.4 987.3
12 12.07 ЮВ 4 н/о н/о +11.9 +6.2 68 +10 +10 1032.4 988.3
13 12.07 ЮВ 2 н/о н/о +9.3 +5.3 76 +8 +8 1032.7 988.6 +17.3
15 12.07 Ю 2 н/о н/о +7.0 +4.7 85 +5 +5 1032.6 988.5
16 12.07 ЮВ 3 н/о н/о +8.3 +5.4 82 +6 +6 1032.4 988.3
18 12.07 ЮВ 2 н/о н/о +6.4 +4.2 86 +4 +4 1033.2 989.1
19 12.07 ЮВ 3 н/о н/о +5.9 +3.9 87 +3 +3 1033.3 989.2
21 12.07 ЮВ 3 н/о н/о +4.9 +3.7 92 +1 +1 1033.8 989.6
22 12.07 ЮВ 3 н/о н/о +3.9 +2.9 93 0 0 1034.5 990.3
00 13.07 ЮВ 3 н/о н/о +6.3 +4.9 91 +3 +3 1036.3 992.0
01 13.07 ЮВ 3 н/о н/о +8.5 +5.4 81 +6 +6 1037.1 992.8 +3.8
03 13.07 В 4 н/о н/о +12.9 +5.3 60 +11 +11 1036.7 992.4
04 13.07 В 4 н/о 8/8 600 м
[]
+13.3 +5.0 57 +12 +13 1035.4 991.2
06 13.07 В 4 н/о н/о +14.4 +5.0 53 +13 +13 1033.7 989.5
07 13.07 В 4 н/о н/о +14.9 +4.9 51 +14 +14 1033.4 989.3
09 13.07 В 4 н/о н/о +13.5 +4.1 53 +12 +12 1033.1 989.0
10 13.07 ЮВ 4 н/о н/о +11.6 +3.9 59 +10 +10 1033.9 989.7
12 13.07 ЮВ 4 н/о н/о +8.0 +3.3 72 +5 +5 1035.1 990.9
13 13.07 В 5 н/о н/о +7.9 +3.4 73 +4 +4 1035.3 991.1 +15.4
15 13.07 В 4 н/о н/о +8.7 +3.7 71 +6 +6 1035.2 991.0
18 13.07 В 3 н/о н/о +7.3 +3.7 78 +4 +4 1034.8 990.6
19 13.07 ЮВ 3 н/о н/о +4.6 +2.3 85 +1 +1 1034.9 990.7
21 13.07 Ю 3 н/о н/о +2.9 +1.7 92 -1 -1 1035.3 991.1
22 13.07 ЮВ 2 н/о н/о +2.5 +1.5 93 -1 -1 1035.4 991.2
00 14.07 В 3 н/о н/о +5.9 +4.1 88 +3 +3 1036.6 992.3
01 14.07 В 4 н/о н/о +7.6 +4.0 78 +4 +4 1036.8 992.5 +2.4
03 14.07 В 5 н/о н/о +12.8 +5.0 59 +11 +11 1036.5 992.2
04 14.07 В 5 н/о н/о +13.7 +5.3 57 +12 +12 1035.6 991.4
06 14.07 В 5 н/о н/о +15.4 +4.8 49 +14 +14 1033.4 989.3
07 14.07 В 4 н/о н/о +15.3 +4.1 47 +14 +14 1032.9 988.8
09 14.07 В 4 н/о н/о +13.0 +4.9 58 +12 +12 1033.1 989.0
10 14.07 ЮВ 4 н/о н/о +10.9 +4.6 65 +9 +9 1033.7 989.5
12 14.07 В 3 н/о н/о +8.2 +3.9 74 +6 +6 1034.2 990.0
13 14.07 ЮВ 3 н/о н/о +8.2 +3.9 74 +6 +6 1034.3 990.1 +15.9
15 14.07 В 5 н/о н/о +8.2 +3.3 71 +5 +5 1034.2 990.0
16 14.07 В 4 н/о н/о +8.6 +3.6 71 +6 +6 1034.1 989.9
18 14.07 В 4 н/о н/о +6.4 +3.2 80 +3 +3 1033.9 989.7
19 14.07 ЮВ 4 н/о н/о +5.3 +3.0 85 +1 +1 1033.9 989.7
21 14.07 ЮВ 4 н/о н/о +3.4 +2.2 92 -1 -1 1034.2 990.0
22 14.07 В 3 н/о 8/8 300 м
[]
+4.3 +3.3 93 0 0 1034.5 990.3
00 15.07 В 3 н/о н/о +7.6 +4.7 82 +5 +5 1035.1 990.9
01 15.07 В 4 н/о н/о +10.6 +5.8 72 +8 +8 1035.2 991.0 +3.3
03 15.07 СВ 5 н/о н/о +13.7 +6.1 60 +12 +12 1034.4 990.2
04 15.07 В 4 н/о н/о +14.7 +6.0 56 +14 +14 1032.8 988.7
06 15.07 В 4 н/о н/о +16.9 +5.2 46 +17 +17 1030.7 986.7
07 15.07 В 3 н/о н/о +17.1 +4.8 44 +17 +17 1030.5 986.5
09 15.07 В 5 н/о н/о +14.9 +4.3 49 +14 +14 1030.7 986.7
10 15.07 В 3 н/о н/о +13.4 +4.0 53 +13 +13 1030.8 986.8
12 15.07 В 4 н/о н/о +10.2 +3.9 65 +8 +8 1031.4 987.3
13 15.07 В 5 н/о н/о +12.6 +4.8 59 +11 +11 1031.6 987.5 +17.6
15 15.07 В 5 н/о н/о +11.0 +5.3 68 +8 +8 1032.1 988.0
16 15.07 СВ 5 н/о н/о +10.1 +5.3 72 +7 +7 1031.7 987.6
18 15.07 СВ 4 н/о н/о +8.4 +5.0 79 +6 +6 1031.4 987.3
19 15.07 СВ 4 н/о н/о +7.7 +4.8 82 +5 +5 1031.4 987.3
21 15.07 СВ 4 н/о н/о +6.8 +4.6 86 +3 +3 1031.0 987.0
22 15.07 С 3 н/о н/о +5.8 +3.8 87 +3 +3 1031.5 987.4
00 16.07 С 3 н/о н/о +7.5 +4.8 83 +5 +5 1032.2 988.1
01 16.07 С 4 н/о н/о +10.4 +5.4 71 +8 +8 1032.4 988.3 +5.2
03 16.07 С 5 н/о н/о +13.9 +5.0 55 +12 +12 1031.6 987.5
04 16.07 СЗ 3 н/о н/о +15.6 +4.6 48 +15 +15 1030.2 986.2
06 16.07 СВ 3 н/о н/о +18.1 +3.6 38 +18 +18 1028.3 984.4
07 16.07 В 2 н/о н/о +18.3 +2.6 35 +19 +19 1028.2 984.3
09 16.07 Ю 2 н/о н/о +16.2 +2.2 39 +17 +17 1028.0 984.1
10 16.07 штиль 0 н/о н/о +13.3 +1.9 46 +13 +13 1028.3 984.4
12 16.07 ЮВ 2 н/о н/о +8.4 +1.3 61 +7 +7 1028.8 984.9
13 16.07 ЮВ 2 н/о н/о +7.8 +1.6 65 +7 +7 1029.0 985.0 +19.0
15 16.07 штиль 0 н/о н/о +6.2 +1.9 74 +5 +5 1028.5 984.6
16 16.07 СЗ 1 н/о н/о +6.3 +1.8 73 +7 +7 1027.9 984.0
18 16.07 С 3 н/о н/о +8.4 +1.1 60 +6 +6 1027.2 983.3
19 16.07 С 2 н/о н/о +7.6 +0.6 61 +6 +6 1026.9 983.0
21 16.07 С 3 н/о н/о +6.2 -0.3 63 +3 +3 1026.1 982.3
22 16.07 С 3 н/о н/о +6.2 -0.1 64 +4 +4 1026.1 982.3
00 17.07 С 2 н/о н/о +8.1 +1.0 61 +7 +7 1026.9 983.0
01 17.07 С 5 н/о н/о +11.5 +1.5 50 +9 +9 1027.1 983.2 +5.5
03 17.07 С 4 н/о н/о +16.8 +1.3 35 +17 +17 1026.1 982.3
04 17.07 С 4 н/о н/о +18.0 +0.6 31 +18 +18 1024.8 981.0
06 17.07 С 5 н/о н/о +20.2 -2.2 22 +20 +20 1022.7 979.0
07 17.07 С 5 н/о н/о +20.5 -4.6 18 +20 +20 1022.3 978.6
09 17.07 С 3 н/о н/о +17.2 -3.5 24 +17 +17 1021.7 978.1
10 17.07 С 2 н/о н/о +13.5 -3.3 31 +13 +13 1021.6 978.0
12 17.07 С 2 н/о н/о +10.8 -3.7 36 +10 +10 1022.1 978.4
13 17.07 СЗ 2 н/о н/о +11.2 -4.1 34 +11 +11 1022.3 978.6 +21.0
15 17.07 СЗ 3 н/о н/о +9.5 -3.1 41 +8 +8 1022.1 978.4
16 17.07 СЗ 3 н/о н/о +7.6 -2.7 48 +6 +6 1021.5 977.9
18 17.07 С 1 н/о н/о +5.1 -3.2 55 +4 +4 1021.0 977.4
19 17.07 штиль 0 н/о н/о +4.5 -2.8 59 +4 +4 1020.8 977.2
21 17.07 С 2 н/о н/о +2.5 -2.2 71 -0 -0 1020.8 977.2
22 17.07 СЗ 2 н/о н/о +2.4 -2.7 69 0 0 1021.3 977.7
00 18.07 штиль 0 н/о н/о +7.8 -0.4 56 +7 +7 1022.3 978.6
01 18.07 З 1 н/о н/о +11.2 -1.2 42 +12 +12 1022.7 979.0 +2.3
03 18.07 В 2 н/о н/о +17.4 +2.6 37 +18 +18 1022.0 978.3
04 18.07 В 2 н/о н/о +19.0 +2.0 32 +20 +20 1020.8 977.2
06 18.07 СЗ 3 н/о н/о +20.8 +0.6 26 +21 +21 комфорт 1018.8 975.3
07 18.07 З 3 н/о н/о +20.3 +0.2 26 +21 +21 комфорт 1018.5 975.0
09 18.07 С 2 н/о н/о +17.5 +0.6 32 +18 +18 1018.2 974.7
12 18.07 штиль 0 н/о н/о +11.6 +1.3 49 +11 +11 1018.5 975.0
13 18.07 С 2 н/о н/о +10.9 +1.2 51 +10 +10 1018.6 975.1 +21.3
15 18.07 С 2 н/о н/о +11.1 +0.8 49 +10 +10 1018.2 974.7
16 18.07 С 2 н/о н/о +9.9 +0.5 52 +9 +9 1017.7 974.2

 

Местоположение метеостанции Калгурли-Боулдер (Западная Австралия, Австралия): широта -30.78 долгота 121.45 высота над уровнем моря 370 м.

В архиве по умолчанию представлена погода в Калгурли-Боулдере за последнюю неделю. Архивные данные за месяц целиком и за предыдущие месяцы, начиная с января 2011 года, Вы можете получить, выбрав интересующий диапазон дат из раскрывающегося списка и нажав кнопку "Ввод!".


*Определитесь, кто Вы:
робот инопланетянин человек

Внимание! Время в таблицах - всемирное. Для получения местного времени необходимо прибавить поправку, которая равна 8 ч.

Смотрите также архив погоды в соседних городах и на ближайших метеорологических станциях:

Погода в Норсмане (Западная Австралия, Австралия) (163 км)
Погода в Саутерн Кросс (Западная Австралия, Австралия) (206 км)
Погода в Леонора аэропорту (Западная Австралия, Австралия) (212 км)
Погода в Салмон Гамс (Западная Австралия, Австралия) (245 км)
Погода в Лавертоне (Западная Австралия, Австралия) (259 км)
Погода в Мунглинап Запад (Западная Австралия, Австралия) (316 км)
Погода в Эсперансе (Западная Австралия, Австралия) (325 км)
Погода в Леинстере (Западная Австралия, Австралия) (334 км)
Погода в Эсперансе (Западная Австралия, Австралия) (342 км)
Погода в Ньюдегейте (Западная Австралия, Австралия) (359 км)

Пояснения к столбцам:

Ветер - указаны скорость ветра в м/с - средняя за 10 мин, порывы в срок и между сроками (в фигурных скобках) и направление, откуда дует ветер: С - северный, СВ - северо-восточный, В - восточный, ЮВ - юго-восточный, Ю - южный, ЮЗ - юго-западный, З - западный, СЗ - северо-западный.
Видимость - горизонтальная дальность видимости в метрах или километрах. При видимости от 1 до 10 км при отсутствии осадков обычно наблюдается дымка, при ухудшении видимости до 1 км и менее - туман. В сухую погоду видимость может ухудшаться дымом, пылью или мглою.
Явления - указаны атмосферные явления, наблюдавшиеся в срок или в последний час перед сроком; фигурными скобками обозначены явления, наблюдавшиеся между сроками (за 1-3 часа до срока); квадратными скобками обозначены град или гололедные отложения с указанием их диаметра в мм.
Облачность - указаны через наклонную черту общая и нижняя облачность в баллах и высота нижней границы облаков в метрах; квадратными скобками обозначены формы облаков: Ci - перистые, Cs - перисто-слоистые, Cc - перисто-кучевые, Ac - высококучевые, As - высокослоистые, Sc - слоисто-кучевые, Ns - слоисто-дождевые, Cu - кучевые, Cb - кучево-дождевые. Подробнее классификацию облаков см. в Атласе облаков (PDF).
T - Температура воздуха - температура, измеренная на высоте 2 м над землей.
Td - Температура точки росы - температура, при понижении до которой содержащийся в воздухе водяной пар достигнет насыщения.
f - Относительная влажность воздуха - влажноcть воздуха, измеренная на высоте 2 м над землей.
Te - Эффективная температура - температура, которую ощущает одетый по сезону человек в тени. Характеристика душности погоды. При расчете учитывается влияние влажности воздуха и скорости ветра на теплоощущения человека.
Tes - Эффективная температура на солнце - температура, которую ощущает человек, с поправкой на солнечный нагрев. Характеристика знойности погоды. Зависит от высоты солнца над горизонтом, облачности и скорости ветра. Ночью, в пасмурную погоду, а также при ветре 12 м/с и более поправка равна нулю.
P - Атмосферное давление - приведенное к уровню моря атмосферное давление.
Po - Атмосферное давление - измеренное на уровне метеостанции атмосферное давление.
Tmin - Минимальная температура - минимум температуры воздуха на высоте 2 м над землей.
Tmax - Максимальная температура - максимум температуры воздуха на высоте 2 м над землей.
R - Количество осадков - Количество выпавших осадков за период времени, мм. При наведении курсора мыши на число - период времени, за который выпало указанное количество осадков.
R24 - Количество осадков - Количество выпавших осадков за 24 часа, мм.
S - Снежный покров - Высота снежного покрова, см. При наведении курсора мыши на число - состояние снежного покрова и степень покрытия местности в баллах.